Regional Weather Roundup
Issued by NWS

Home | Current Version | Previous Version | Graphics & Text | Print | Product List | Glossary On
Versions: 1 2 3 4 5 6 7 8 9 10 11 12 13 14 15 16 17 18 19 20 21 22 23 24 25 26 27 28 29 30 31 32 33 34 35 36 37 38 39 40 41 42 43 44 45 46 47 48 49 50
000
ASUS43 KOAX 290610
RWRNE

WEATHER ROUNDUP FOR NEBRASKA
NATIONAL WEATHER SERVICE OMAHA NE
100 AM CDT SAT AUG 29 2015

NOTES: SATELLITE DATA IS BEING USED TO AUGMENT CLOUD COVER ABOVE
       12000 FEET.
       "FAIR" INDICATES FEW OR NO CLOUDS BELOW 12,000 FEET WITH NO
       SIGNIFICANT WEATHER AND/OR OBSTRUCTIONS TO VISIBILITY.

  * THESE STATIONS DO NOT REPORT WEATHER SUCH AS RAIN...SNOW OR FOG.

NEZ001>004-019>022-054>056-290700-
NEBRASKA PANHANDLE

CITY           SKY/WX    TMP DP  RH WIND       PRES   REMARKS
SCOTTSBLUFF    CLEAR     61  51  70 E5        30.17R
6HR MIN TEMP:  60; 6HR MAX TEMP:  84;

ALLIANCE       CLEAR     54  48  80 W3        30.15S
6HR MIN TEMP:  54; 6HR MAX TEMP:  83;

CHADRON        CLEAR     56  48  74 CALM      30.10S
6HR MIN TEMP:  56; 6HR MAX TEMP:  86;

KIMBALL        CLEAR     57  45  63 S5        30.22S
SIDNEY         CLEAR     54  42  64 SW6       30.21R
6HR MIN TEMP:  52; 6HR MAX TEMP:  84;

$$

NEZ057>060-069>072-079>082-290700-
SOUTHWEST NEBRASKA

CITY           SKY/WX    TMP DP  RH WIND       PRES   REMARKS
NORTH PLATTE   CLEAR     57  55  93 CALM      30.12R
6HR MIN TEMP:  57; 6HR MAX TEMP:  79;

IMPERIAL       CLEAR     62  58  86 CALM      30.15R
6HR MIN TEMP:  62; 6HR MAX TEMP:  84;

LEXINGTON      CLEAR     60  58  94 NW3       30.10S
MCCOOK         CLEAR     65  60  84 CALM      30.11S
6HR MIN TEMP:  64; 6HR MAX TEMP:  83;

OGALLALA       CLEAR     57  56  95 SW3       30.15R
$$

NEZ005>010-023>029-035>040-094-290700-
NORTH CENTRAL NEBRASKA

CITY           SKY/WX    TMP DP  RH WIND       PRES   REMARKS
VALENTINE      CLEAR     61  59  93 CALM      30.08S
6HR MIN TEMP:  60; 6HR MAX TEMP:  80;

AINSWORTH      CLEAR     59  58  98 S5        30.09R
BROKEN BOW     CLEAR     59  57  93 CALM      30.09R
6HR MIN TEMP:  59; 6HR MAX TEMP:  77;

O`NEILL        CLEAR     62  62  99 SE3       30.07S FOG
ORD            CLEAR     58  58 100 CALM      30.06R
6HR MIN TEMP:  56; 6HR MAX TEMP:  74;

THEDFORD       CLEAR     58  57  97 CALM      30.11S
$$

NEZ041-046>049-061>064-073>077-083>087-290700-
SOUTH CENTRAL NEBRASKA

CITY           SKY/WX    TMP DP  RH WIND       PRES   REMARKS
GRAND ISLAND   FAIR      62  60  93 N7        30.05S
6HR MIN TEMP:  62; 6HR MAX TEMP:  74;

AURORA         MOCLDY    62  62 100 N5        30.04R
HASTINGS       FAIR      61  59  93 N6        30.04S
6HR MIN TEMP:  60; 6HR MAX TEMP:  73;

HEBRON         FAIR      64  60  89 CALM      30.01R
HOLDREGE       FAIR      61  58  90 W5        30.08R
KEARNEY *      FAIR      59  54  82 NW7       30.07R
YORK           MOCLDY    61  61 100 N8        30.03R
$$

NEZ011>018-030>034-042>045-290700-
NORTHEAST NEBRASKA

CITY           SKY/WX    TMP DP  RH WIND       PRES   REMARKS
NORFOLK        FAIR      58  56  93 NW7       30.03S
6HR MIN TEMP:  58; 6HR MAX TEMP:  73;

ALBION         FAIR      59  56  91 CALM      30.05S
BLAIR          CLOUDY    61  59  93 N12       29.98R FOG
COLUMBUS *     CLOUDY    61  54  77 N5        30.02R
FREMONT        CLOUDY    63  60  90 N8        30.00R
TEKAMAH        CLOUDY    62  61  96 N9        29.99R
6HR MIN TEMP:  62; 6HR MAX TEMP:  66;

WAYNE          CLOUDY    61  58  92 N6        30.03S
$$

NEZ050>053-065>068-078-088>093-290700-
SOUTHEAST NEBRASKA

CITY           SKY/WX    TMP DP  RH WIND       PRES   REMARKS
LINCOLN        CLOUDY    65  60  84 N9        29.99S
6HR MIN TEMP:  64; 6HR MAX TEMP:  73;

OMAHA EPPLEY   CLOUDY    64  62  93 N10       29.97R
6HR MIN TEMP:  63; 6HR MAX TEMP:  71; 6HR PCP: TRACE;

BEATRICE       CLOUDY    64  61  90 N6        29.99R
FALLS CITY     CLOUDY    67  65  93 NW7       29.95R
6HR MIN TEMP:  67; 6HR MAX TEMP:  74;

NEBRASKA CITY  CLOUDY    64  63  98 N7        29.96S FOG
PLATTSMOUTH    CLOUDY    63  61  94 NW7       29.97S FOG
$$

NEZ044-045-051>053-067-290700-
OMAHA AREA

CITY           SKY/WX    TMP DP  RH WIND       PRES   REMARKS
OMAHA EPPLEY   CLOUDY    64  62  93 N10       29.97R
6HR MIN TEMP:  63; 6HR MAX TEMP:  71; 6HR PCP: TRACE;

BLAIR          CLOUDY    61  59  93 N12       29.98R FOG
FREMONT        CLOUDY    63  60  90 N8        30.00R
MILLARD        CLOUDY    64  62  91 N6        29.98R
OFFUTT AFB     CLOUDY    64  62  95 N5        29.96R FOG
PLATTSMOUTH    CLOUDY    63  61  94 NW7       29.97S FOG
WAHOO          CLOUDY    63  60  91 N7G16     29.99R
$$



USA.gov is the U.S. government's official web portal to all federal, state and local government web resources and services.